Flag for United Arab Emirates Weather past 2 weeks in Abu Dhabi, Abu Dhabi, United Arab Emirates

Now
93 °F

Passing clouds.


Feels Like: 110 °F
Forecast: 90 / 103 °F
Wind: 6 mph from North

Location: Abu Dhabi Bateen Airport

Current Time: Aug 1, 2014 at 8:20:25 PM

Latest Report: Aug 1, 2014 at 8:00 PM


Visibility: N/A

Pressure: 29.42 "Hg

Humidity: 63%

Dew point: 79 °F

Location of Abu DhabiLocation

Historic Weather in Abu Dhabi — Graph

°F

Abu Dhabi temperature yesterday

Maximum temperature yesterday: 104 °F (at 12:00 PM)
Minimum temperature yesterday: 86 °F (at 6:00 AM)
Average temperature yesterday: 95 °F

Past Weeks' High & Low Weather Summary

 TemperatureHumidityPressure
High113 °F (Jul 26, 2:00 PM)89% (Jul 19, 3:00 AM)29.56 "Hg (Jul 19, 3:00 AM)
Low86 °F (Jul 24, 7:00 AM)13% (Jul 26, 2:00 PM)29.33 "Hg (Jul 18, 1:00 AM)
Average96 °F56%29.43 "Hg
* Reported Jul 17 7:00 PM — Aug 1 7:00 PM, Abu Dhabi, Weather by CustomWeather, © 2014

Note: Actual official high and low records may vary slightly from our data, if they occured in-between our weather recording intervals... More about our weather records

Advertising

Abu Dhabi weather history for previous 24 hours

 ConditionsComfort  
Time TempWeatherWind HumidityBarometerVisibility
7:00 PM
Aug 1
95 °FPassing clouds.8 mph53%29.42 "HgN/A
6:00 PM99 °FSunny.10 mph47%29.42 "Hg10 mi
5:00 PM100 °FSunny.12 mph45%29.39 "Hg10 mi
4:00 PM102 °FSunny.10 mph31%29.39 "Hg10 mi
3:00 PM104 °FPassing clouds.13 mph29%29.42 "HgN/A
2:00 PM104 °FPassing clouds.10 mph31%29.42 "HgN/A
1:00 PM104 °FPassing clouds.8 mph31%29.45 "HgN/A
12:00 PM104 °FPassing clouds.5 mph26%29.45 "HgN/A
11:00 AM100 °FPassing clouds.5 mph31%29.47 "HgN/A
10:00 AM95 °FClear.7 mph56%29.47 "Hg6 mi
9:00 AM95 °FPassing clouds.5 mph47%29.47 "HgN/A
8:00 AM93 °FClear.3 mph41%29.47 "Hg5 mi
7:00 AM88 °FClear.1 mph62%29.45 "Hg5 mi
6:00 AM86 °FSunny.1 mph62%29.45 "Hg10 mi
5:00 AM86 °FClear.No wind66%29.42 "Hg10 mi
4:00 AM88 °FClear.1 mph59%29.42 "Hg10 mi
3:00 AM90 °FClear.No wind59%29.42 "Hg10 mi
2:00 AM90 °FClear.No wind59%29.42 "Hg10 mi
1:00 AM91 °FClear.3 mph63%29.45 "Hg10 mi
12:00 AM91 °FClear.5 mph63%29.45 "Hg10 mi
11:00 PM
Jul 31
93 °FClear.3 mph59%29.45 "Hg10 mi
10:00 PM93 °FClear.3 mph67%29.45 "Hg6 mi
9:00 PM93 °FClear.5 mph71%29.45 "Hg6 mi
8:00 PM93 °FClear.6 mph67%29.42 "Hg6 mi
Weather by CustomWeather, © 2014

See weather overviewHow to use our weather pages